NOAA 17 DEB

Satellite information

Favourite Embed

Satellite Type and Status

DEBRISIN ORBIT

Key statistics

Satellite NOAA 17 DEB at a glance.

Uptime

8474

Days in orbit

Revolutions

≈ 14.2

Per day

Orbit

SSO

Sun Synchronous Orbit

Inclination

98.9

Latest

Satellite identification and parameters

Extended collection of information and parameters for NOAA 17 DEB.

Object identification

Identified? True

Debris? True

Object name: NOAA 17 DEB

International designator: 2002-032AP

Object number (NORAD): 48706

Object ID (CCSDS): 48706

Country: UNITED STATES OF AMERICA (US)

Current information (Y/N): Y

RCS size: SMALL

Orbital parameters

Period: 101.279 minutes

Inclination: 98.919 deg

SMA: 7197.378 km

Apoapsis: 891.472 km

Periapsis: 747.013 km

RAAN: 190.359 deg

Eccentricy: 0.01003554

Argument of periapsis: 250.9409 deg

Mean anomaly: 108.0877 deg

Mean motion: 14.21809147 rev/day

Mean motion (dot): 0.00012457 rev/day2

B* drag term: 0.0053868591 1/REarth

Two-line elements (TLE)

Creation date: Sept. 3, 2025, 10:15 a.m.

Reference frame: TEME

Reference center: EARTH

Epoch: Sept. 3, 2025, 2:49 a.m. UTC

TLE line 0: 0 NOAA 17 DEB

TLE line 1: 1 48706U 02032AP 25246.11792902 .00012457 00000-0 53869-2 0 9994

TLE line 2: 2 48706 98.9190 190.3590 0100355 250.9409 108.0877 14.21809147226359

Live tracking on map

Real-time ground track for satellite NOAA 17 DEB.

In-orbit conjunctions

A list of the most updated potential collisions computed for object NOAA 17 DEB.

Target Orbit TCA Probability of collision Miss distance Type
COSMOS 1777 LEO 2024-12-22 09:57:20 0.0001110201 393.0 (m) PAYLOAD
SL-3 DEB LEO 2024-11-13 07:20:01 0.0002103353 203.0 (m) DEBRIS
SL-14 DEB LEO 2024-09-04 12:12:19 0.000120263 180.0 (m) DEBRIS

Associated space launch

NOAA M carried weather imagers and microwave and infrared sounders, as well as a SARSAT search-and-rescue package. It had an on-orbit mass of 1475 kg.

NOAA 17 DEB was lifted into orbit during the mission ‘Titan II SLV | NOAA 17’, on board a Titan II SLV space rocket.

The launch took place on June 24, 2002, 6:23 p.m. from Space Launch Complex 4W.

For more information about the launch, click the button.

Launch to space Titan II SLV | NOAA 17
Titan II SLV | NOAA 17

Agency: N/A

Status: Launch Successful

Launch date: June 24, 2002, 6:23 p.m. UTC

Rocket: Titan II SLV

Launch pad: Space Launch Complex 4W

Location: Vandenberg SFB, CA, USA

...

Latest news about this satellite

There are no fresh news available about this satellite. Check back as we update our databases every day.


Newsletter sign-up

Weekly statistics, charts and insights to help you stay on top of the space industry.